www.pogodaiklimat.ru

Погода и климат >> Архив погоды >> Франц. Южн. Территории >> Порт-о-Франсе


ПОГОДА в Порт-о-Франсе

  • Прогноз погоды в Порт-о-Франсе
  • Монитор погоды в Порт-о-Франсе

АРХИВ ПОГОДЫ в Порт-о-Франсе

Время (UTC), дата Ветер
(напр.,м/с)
 
Видим.   Явления Облачность Т
(С)
Тd
(С)
f
(%)
Тe
(С)
Тes
(С)
Комфортность P
(гПа)
Po
(гПа)
Тmin
(С)
Tmax
(С)
R
(мм)
R24
(мм)
S
(см)
19 16.07 З 19
{29}
н/о н/о +2.5 -4.5 60 -6 -6 991.0 987.3
20 16.07 З 19
{27}
н/о н/о +2.6 -4.0 62 -6 -6 990.6 986.9
21 16.07 З 18
{27}
н/о н/о +2.1 -4.0 64 -7 -7 990.3 986.6
22 16.07 З 15
{25}
н/о н/о +2.6 -3.5 64 -6 -6 989.8 986.1
23 16.07 З 17
{24}
н/о н/о +2.4 -3.3 66 -6 -6 989.4 985.7
00 17.07 З 19
{26}
н/о н/о +2.6 -3.7 63 -6 -6 989.4 985.7
01 17.07 З 19
{27}
н/о н/о +2.5 -3.2 66 -6 -6 988.9 985.2
02 17.07 З 21
{30}
н/о н/о +1.6 -2.0 77 -8 -8 989.6 985.9
03 17.07 З 17
{27}
2000 м слаб. ливневой снег 10/10 300 м
[Frnb]
+0.5 -1.1 89 -9 -9 990.8 987.1 0.0
04 17.07 З 20
{26}
н/о н/о +0.9 -1.3 85 -9 -9 992.1 988.4 0.2
05 17.07 З 20
{27}
н/о н/о +1.1 -1.3 84 -9 -9 993.2 989.5 0.2
06 17.07 З 23
{33}
н/о н/о +2.0 -2.3 73 -8 -8 994.6 990.9 +0.6 3
07 17.07 З 24
{34}
н/о н/о +2.3 -1.7 75 -8 -8 995.8 992.1 0.0
08 17.07 ЮЗ 25
{37}
н/о н/о +1.8 -2.2 75 -9 -9 998.1 994.4 0.0
09 17.07 ЮЗ 23
{34}
н/о н/о +2.3 -1.1 78 -8 -8 1000.2 996.5 0.0
10 17.07 ЮЗ 24
{33}
н/о н/о +2.1 -2.8 70 -8 -8 1002.2 998.5
11 17.07 ЮЗ 25
{35}
н/о н/о +2.3 -3.6 65 -8 -8 1004.8 1001.1
12 17.07 ЮЗ 23
{31}
10 км слаб. ливневой снег 9/9 480 м
[Cu hum]
+2.3 -4.5 61 -7 -7 1007.5 1003.8 0.0
13 17.07 ЮЗ 22
{29}
н/о н/о +2.5 -3.6 64 -7 -7 1009.3 1005.6 0.0
14 17.07 ЮЗ 16
{25}
н/о н/о +2.2 -3.5 66 -6 -6 1011.1 1007.4 0.0
15 17.07 З 11
{21}
н/о н/о +1.8 -3.5 68 -6 -6 1012.0 1008.2 0.0
16 17.07 З 12
{16}
н/о н/о +1.9 -3.6 67 -6 -6 1012.6 1008.8 0.0
17 17.07 З 12
{16}
н/о н/о +2.2 -3.3 67 -6 -6 1012.1 1008.4 0.0
18 17.07 З 13
{17}
н/о н/о +2.1 -2.8 70 -6 -6 1012.1 1008.3 +2.6 0.0
19 17.07 З 14
{19}
н/о н/о +2.8 -1.9 71 -5 -5 1011.8 1008.1
20 17.07 З 11
{18}
н/о н/о +2.0 -0.9 81 -6 -6 1011.9 1008.1
21 17.07 З 14
{21}
н/о н/о +2.9 -0.6 78 -5 -5 1011.8 1008.1
22 17.07 З 12
{19}
н/о н/о +3.7 -1.1 71 -3 -3 1010.8 1007.1
23 17.07 СЗ 11
{16}
н/о н/о +3.0 -1.4 73 -4 -4 1010.3 1006.6
00 18.07 СЗ 9
{16}
н/о н/о +2.7 -1.3 75 -4 -4 1009.9 1006.2
01 18.07 СЗ 10
{14}
н/о н/о +2.1 -0.8 81 -5 -5 1009.0 1005.3 0.2
02 18.07 СЗ 12
{16}
н/о н/о +2.2 -0.6 82 -6 -6 1007.2 1003.5 0.2
03 18.07 СЗ 9
{16}
10 км слаб. дождь 10/10 480 м
[Sc]
+2.5 -0.3 82 -5 -5 1005.3 1001.6 1
04 18.07 С 7
{14}
н/о н/о +3.7 +0.7 81 -2 -2 1003.5 999.8 0.0
05 18.07 СЗ 10
{15}
н/о н/о +4.6 +1.8 82 -2 -2 1001.2 997.5 0.2
06 18.07 СЗ 14
{21}
н/о н/о +6.0 +2.8 80 -1 -1 999.9 996.2 +1.6 2
07 18.07 СЗ 11
{17}
н/о н/о +6.7 +3.5 80 +1 +1 997.9 994.3
08 18.07 СЗ 14
{21}
н/о н/о +7.0 +4.1 82 +1 +1 996.2 992.6
09 18.07 СЗ 16
{21}
н/о н/о +8.2 +5.5 83 +2 +2 995.6 992.0
10 18.07 СЗ 16
{23}
н/о н/о +7.8 +4.9 82 +1 +1 995.6 992.0
11 18.07 СЗ 15
{23}
н/о н/о +7.6 +4.9 83 +1 +1 995.8 992.2
12 18.07 З 15
{24}
н/о н/о +8.0 +5.1 82 +2 +2 995.7 992.1
13 18.07 СЗ 17
{25}
н/о н/о +8.0 +5.1 82 +1 +1 994.8 991.2
14 18.07 З 13
{23}
н/о н/о +8.2 +5.3 82 +2 +2 993.8 990.2
15 18.07 СЗ 15
{22}
н/о н/о +8.2 +5.8 85 +2 +2 992.7 989.1 0.8
16 18.07 СЗ 15
{26}
н/о н/о +8.8 +6.2 84 +3 +3 992.3 988.7 0.4
17 18.07 СЗ 16
{25}
н/о н/о +9.4 +6.8 84 +4 +4 991.4 987.8
18 18.07 З 17
{27}
н/о н/о +9.2 +5.9 80 +3 +3 991.3 987.7 +9.7 1
19 18.07 З 21
{30}
н/о н/о +9.4 +4.2 70 +3 +3 992.3 988.7
20 18.07 З 23
{37}
н/о н/о +8.9 +3.1 67 +2 +2 993.0 989.4
21 18.07 З 17
{31}
н/о н/о +7.9 +2.6 69 +2 +2 994.3 990.7
22 18.07 З 15
{24}
н/о н/о +7.4 +2.1 69 +1 +1 994.9 991.3
23 18.07 З 19
{26}
н/о н/о +7.0 +1.5 68 0 0 994.5 990.9
00 19.07 З 17
{27}
н/о н/о +6.4 +1.1 69 -1 -1 994.2 990.6
01 19.07 З 15
{24}
н/о н/о +6.0 +1.3 72 -1 -1 994.3 990.7
02 19.07 З 12
{20}
н/о н/о +5.8 +1.3 73 -1 -1 994.0 990.4
03 19.07 СЗ 12
{17}
н/о н/о +5.2 +1.7 78 -2 -2 994.3 990.7
04 19.07 СЗ 6
{16}
н/о н/о +4.7 +1.7 81 -1 -1 993.8 990.2
05 19.07 СЗ 6
{12}
н/о н/о +4.8 +1.6 80 -0 -0 993.4 989.8
06 19.07 СЗ 7
{9}
н/о н/о +5.1 +1.6 78 -0 -0 991.3 987.7 +5.3 1
07 19.07 СВ 3
{12}
н/о н/о +4.8 +1.8 81 +1 +1 989.1 985.5
08 19.07 ЮЗ 4
{8}
н/о н/о +4.8 +2.8 87 +1 +1 987.9 984.3 3
09 19.07 Ю 3
{6}
н/о н/о +4.0 +2.2 88 +1 +1 986.4 982.8 3
10 19.07 ЮЗ 5
{7}
н/о н/о +3.4 +1.9 90 -2 -2 988.5 984.9 1
11 19.07 ЮЗ 7
{12}
н/о н/о +2.7 +0.9 88 -4 -4 991.0 987.3
12 19.07 ЮЗ 8
{12}
н/о н/о +2.2 -0.6 82 -4 -4 992.8 989.1 4
13 19.07 ЮЗ 7
{9}
н/о н/о +2.0 -0.9 81 -4 -4 994.6 990.9
14 19.07 ЮЗ 10
{13}
н/о н/о +1.7 -0.9 83 -6 -6 996.6 992.9
15 19.07 ЮЗ 8
{11}
н/о н/о +1.9 -0.8 82 -5 -5 998.9 995.2
16 19.07 ЮЗ 7
{11}
н/о н/о +1.8 -1.1 81 -5 -5 1000.3 996.6
17 19.07 З 9
{11}
н/о н/о +2.0 -2.0 75 -5 -5 1001.5 997.8
18 19.07 З 8
{12}
н/о н/о +1.8 -2.9 71 -5 -5 1003.0 999.3 +5.9 4
19 19.07 З 6
{12}
н/о н/о +1.6 -2.9 72 -4 -4 1004.3 1000.6
20 19.07 З 7
{9}
н/о н/о +1.5 -3.6 69 -5 -5 1004.6 1000.9
21 19.07 З 5
{8}
н/о н/о +1.1 -4.4 67 -4 -4 1005.1 1001.4
22 19.07 СЗ 3
{7}
н/о н/о +1.0 -4.6 66 -3 -3 1006.0 1002.3
23 19.07 СЗ 2
{5}
н/о н/о +0.5 -4.7 68 -3 -3 1006.2 1002.4
00 20.07 СЗ 4
{5}
н/о н/о +0.7 -3.6 73 -4 -4 1006.5 1002.8
01 20.07 СЗ 3
{5}
н/о н/о +0.5 -4.0 72 -4 -4 1006.8 1003.0
02 20.07 СЗ 2
{4}
н/о н/о +0.4 -4.1 72 -2 -2 1007.0 1003.2
03 20.07 С 2
{3}
н/о н/о +0.1 -3.6 76 -3 -3 1006.9 1003.1
04 20.07 СВ 2
{4}
н/о н/о +0.3 -3.4 76 -2 -2 1007.2 1003.4
05 20.07 СВ 3
{4}
н/о н/о +0.6 -2.5 80 -3 -3 1007.2 1003.4
06 20.07 СВ 3
{5}
н/о н/о +1.0 -2.4 78 -3 -3 1006.7 1003.0 0.0 4
07 20.07 С 4
{5}
н/о н/о +1.5 -2.1 77 -3 -3 1005.8 1002.1
08 20.07 СВ 5
{8}
н/о н/о +0.7 -1.2 87 -5 -5 1004.6 1000.9
09 20.07 СВ 7
{9}
н/о н/о +0.5 -1.0 90 -7 -7 1003.2 999.5 0.2
10 20.07 СВ 6
{9}
н/о н/о +0.2 -1.1 91 -7 -7 1001.4 997.7 0.2
11 20.07 СВ 5
{8}
н/о н/о +0.3 -0.8 92 -6 -6 1000.7 997.0 0.6
12 20.07 СВ 6
{7}
н/о н/о +0.5 -0.6 92 -6 -6 998.8 995.1 1
13 20.07 В 4
{7}
н/о н/о +0.6 -0.4 93 -5 -5 997.3 993.6 0.2
14 20.07 В 2
{4}
н/о н/о +0.6 -0.4 93 -2 -2 995.6 991.9 0.2
15 20.07 З 4
{8}
н/о н/о +0.8 -0.2 93 -5 -5 994.6 990.9 0.4
16 20.07 З 5
{11}
н/о н/о +4.7 +3.7 93 0 0 993.4 989.8
17 20.07 ЮЗ 2
{8}
н/о н/о +5.8 +4.6 92 +3 +3 991.9 988.3
18 20.07 СЗ 14
{20}
н/о н/о +9.1 +7.4 89 +3 +3 990.4 986.8 +1.7 3
19 20.07 СЗ 14
{21}
н/о н/о +8.8 +6.8 87 +3 +3 990.7 987.1 0.6
20 20.07 СЗ 15
{23}
н/о н/о +9.4 +7.5 88 +4 +4 991.1 987.5 0.6
21 20.07 СЗ 15
{22}
н/о н/о +8.8 +7.1 89 +3 +3 990.9 987.3 2
22 20.07 СЗ 18
{25}
н/о н/о +8.9 +7.0 88 +3 +3 990.9 987.3 1
23 20.07 СЗ 14
{23}
н/о н/о +8.5 +6.6 88 +3 +3 990.7 987.1 1
00 21.07 СЗ 14
{22}
н/о н/о +8.4 +6.5 88 +2 +2 990.9 987.3 5
01 21.07 З 11
{16}
н/о н/о +9.3 +7.4 88 +4 +4 991.4 987.8
02 21.07 СЗ 10
{15}
н/о н/о +9.1 +6.4 83 +4 +4 992.0 988.4
03 21.07 СЗ 8
{13}
н/о н/о +8.6 +5.9 83 +4 +4 991.9 988.3
04 21.07 СЗ 10
{14}
н/о н/о +7.9 +5.7 86 +2 +2 992.2 988.6 0.2
05 21.07 СЗ 8
{14}
н/о н/о +7.9 +6.0 88 +3 +3 992.6 989.0
06 21.07 СЗ 5
{12}
н/о н/о +8.5 +6.5 87 +5 +5 992.5 988.9 +0.9 8
07 21.07 СЗ 3
{9}
н/о н/о +9.2 +6.3 82 +7 +7 992.3 988.7
08 21.07 СЗ 7
{10}
н/о н/о +8.2 +6.2 87 +4 +4 991.1 987.5 0.6
09 21.07 СЗ 4
{9}
н/о н/о +8.2 +6.2 87 +5 +5 990.2 986.6 2
10 21.07 ЮЗ 2
{5}
н/о н/о +7.4 +5.7 89 +5 +5 989.3 985.7 2
11 21.07 СВ 3
{4}
н/о н/о +7.0 +5.6 91 +4 +4 988.4 984.8 1
12 21.07 В 3
{4}
н/о н/о +6.4 +5.2 92 +3 +3 987.0 983.4 7
13 21.07 В 4
{5}
н/о н/о +5.4 +4.4 93 +1 +1 985.6 982.0 2
14 21.07 В 3
{5}
н/о н/о +5.2 +4.2 93 +2 +2 984.3 980.7 1
15 21.07 З 3
{4}
н/о н/о +4.9 +4.0 94 +2 +2 984.0 980.4 3
16 21.07 З 5
{7}
н/о н/о +5.3 +4.4 94 +1 +1 984.4 980.8 0.6
17 21.07 З 2
{8}
н/о н/о +4.9 +4.0 94 +3 +3 984.1 980.5 0.2
18 21.07 СВ 2
{3}
н/о н/о +4.5 +3.6 94 +2 +2 984.3 980.7 +9.5 10
19 21.07 С 7
{11}
н/о н/о +6.9 +5.8 93 +2 +2 984.7 981.1 0.2
20 21.07 СЗ 14
{19}
н/о н/о +6.4 +3.9 84 -1 -1 983.1 979.5 0.2
21 21.07 СЗ 12
{21}
н/о н/о +5.7 +3.9 88 -1 -1 983.3 979.7 0.4
22 21.07 СЗ 9
{16}
н/о н/о +5.2 +3.4 88 -1 -1 983.5 979.9
23 21.07 СЗ 6
{12}
н/о н/о +5.2 +2.9 85 0 0 983.2 979.6
00 22.07 З 7
{15}
н/о н/о +5.2 +2.9 85 -0 -0 983.3 979.7 0.4
01 22.07 ЮЗ 4
{15}
н/о н/о +4.8 +1.8 81 +1 +1 983.4 979.8
02 22.07 З 6
{12}
н/о н/о +4.9 +1.0 76 0 0 983.1 979.5
03 22.07 С 3
{10}
н/о н/о +4.4 +0.9 78 +1 +1 983.1 979.5
04 22.07 СЗ 8
{15}
н/о н/о +4.1 +1.0 80 -2 -2 982.6 979.0
05 22.07 СЗ 11
{16}
н/о н/о +4.5 +1.7 82 -2 -2 982.8 979.2
06 22.07 З 12
{16}
н/о н/о +5.3 +1.6 77 -2 -2 983.8 980.2 +4.4 11
07 22.07 З 20
{26}
н/о н/о +2.7 -0.2 81 -7 -7 986.1 982.5 0.2
08 22.07 З 17
{26}
н/о н/о +2.9 -0.4 79 -6 -6 988.4 984.7
09 22.07 ЮЗ 17
{24}
н/о н/о +2.5 -0.6 80 -6 -6 990.5 986.8 0.2
10 22.07 З 19
{24}
н/о н/о +1.9 -1.4 79 -8 -8 992.7 989.0
11 22.07 ЮЗ 16
{22}
н/о н/о +1.5 -1.7 79 -8 -8 995.2 991.5
12 22.07 ЮЗ 16
{22}
н/о н/о +0.9 -2.2 80 -8 -8 997.1 993.4 0.2
13 22.07 ЮЗ 16
{21}
н/о н/о +1.7 -3.6 68 -7 -7 998.9 995.2
14 22.07 ЮЗ 15
{22}
н/о н/о +0.8 -2.8 77 -8 -8 1000.7 997.0
15 22.07 З 12
{24}
н/о н/о -0.4 -3.4 80 -9 -9 1002.1 998.4
16 22.07 З 12
{17}
н/о н/о -0.1 -3.3 79 -9 -9 1003.5 999.8
17 22.07 З 11
{21}
н/о н/о -0.4 -3.6 79 -9 -9 1005.1 1001.3
18 22.07 З 11
{19}
н/о н/о -0.7 -3.2 83 -9 -9 1006.5 1002.7 +5.9 0.2
20 22.07 З 10
{12}
н/о н/о +0.5 -5.5 64 -7 -7 1008.2 1004.4
21 22.07 З 5
{11}
н/о н/о +0.1 -5.7 65 -6 -6 1009.2 1005.4
22 22.07 СЗ 4
{8}
н/о н/о -0.7 -5.5 70 -6 -6 1009.7 1005.9
23 22.07 С 3
{6}
н/о н/о -0.9 -5.5 71 -5 -5 1009.8 1006.0
00 23.07 СЗ 4
{7}
н/о н/о +0.6 -4.1 71 -4 -4 1010.0 1006.2
01 23.07 С 3
{8}
н/о н/о +1.4 -3.1 72 -2 -2 1009.7 1005.9
02 23.07 СЗ 8
{11}
н/о н/о +1.2 -1.4 83 -6 -6 1009.3 1005.5
03 23.07 СЗ 9
{12}
н/о н/о +1.9 -1.4 79 -5 -5 1009.3 1005.6
04 23.07 СЗ 5
{11}
н/о н/о +2.2 -1.4 77 -3 -3 1009.4 1005.7
05 23.07 СЗ 7
{13}
н/о н/о +2.9 -0.4 79 -3 -3 1009.2 1005.5
06 23.07 З 3
{9}
н/о н/о +3.2 +0.1 80 -1 -1 1008.4 1004.7 -1.2 0.2
07 23.07 СЗ 12
{16}
н/о н/о +4.5 +0.8 77 -2 -2 1006.9 1003.2
08 23.07 СЗ 19
{25}
н/о н/о +4.7 +0.3 73 -3 -3 1005.1 1001.4
09 23.07 СЗ 16
{25}
н/о н/о +4.7 +0.3 73 -3 -3 1005.0 1001.3
10 23.07 С 7
{17}
н/о н/о +4.8 +1.3 78 -1 -1 1004.5 1000.8
11 23.07 СЗ 16
{24}
н/о н/о +4.8 +1.6 80 -3 -3 1002.3 998.6 0.2
12 23.07 СЗ 22
{33}
н/о н/о +5.0 +2.2 82 -4 -4 999.5 995.8 0.8
14 23.07 СЗ 13
{26}
н/о н/о +5.7 +3.5 86 -1 -1 999.9 996.2 0.2
15 23.07 СЗ 10
{16}
н/о н/о +6.0 +4.0 87 -0 -0 999.7 996.1 0.6
17 23.07 З 9
{14}
н/о н/о +7.3 +4.8 84 +2 +2 999.5 995.9
18 23.07 З 7
{13}
н/о н/о +6.5 +3.5 81 +2 +2 999.4 995.8 +6.3 1
19 23.07 СЗ 8
{16}
н/о н/о +6.0 +2.3 77 +1 +1 1000.1 996.4

 

Местоположение метеостанции Порт-о-Франсе (Франц. Южн. Территории): широта -49.30 долгота 70.20 высота над уровнем моря 30 м.

В архиве по умолчанию представлена погода в Порт-о-Франсе за последнюю неделю. Архивные данные за месяц целиком и за предыдущие месяцы, начиная с января 2011 года, Вы можете получить, выбрав интересующий диапазон дат из раскрывающегося списка и нажав кнопку "Ввод!".


*Определитесь, кто Вы:
робот инопланетянин человек

Внимание! Время в таблицах - всемирное. Для получения местного времени необходимо прибавить поправку, которая равна 5 ч.

Смотрите также архив погоды в соседних городах и на ближайших метеорологических станциях:

Погода на Острове Херд (Тасмания, Австралия) (489 км)
Погода на Базе Alfred Faure (Франц. Южн. Территории) (1401 км)
Погода в Мартен-де-Вивье (Франц. Южн. Территории) (1406 км)
Погода на Моусоне (Антарктида) (2076 км)
Погода на Davis (Whoop Whoop) (Антарктида) (2184 км)
Погода на Davis (Антарктида) (2186 км)

Пояснения к столбцам:

Ветер - указаны скорость ветра в м/с - средняя за 10 мин, порывы в срок и между сроками (в фигурных скобках) и направление, откуда дует ветер: С - северный, СВ - северо-восточный, В - восточный, ЮВ - юго-восточный, Ю - южный, ЮЗ - юго-западный, З - западный, СЗ - северо-западный.
Видимость - горизонтальная дальность видимости в метрах или километрах. При видимости от 1 до 10 км при отсутствии осадков обычно наблюдается дымка, при ухудшении видимости до 1 км и менее - туман. В сухую погоду видимость может ухудшаться дымом, пылью или мглою.
Явления - указаны атмосферные явления, наблюдавшиеся в срок или в последний час перед сроком; фигурными скобками обозначены явления, наблюдавшиеся между сроками (за 1-3 часа до срока); квадратными скобками обозначены град или гололедные отложения с указанием их диаметра в мм.
Облачность - указаны через наклонную черту общая и нижняя облачность в баллах и высота нижней границы облаков в метрах; квадратными скобками обозначены формы облаков: Ci - перистые, Cs - перисто-слоистые, Cc - перисто-кучевые, Ac - высококучевые, As - высокослоистые, Sc - слоисто-кучевые, Ns - слоисто-дождевые, Cu - кучевые, Cb - кучево-дождевые. Подробнее классификацию облаков см. в Атласе облаков (PDF).
T - Температура воздуха - температура, измеренная на высоте 2 м над землей.
Td - Температура точки росы - температура, при понижении до которой содержащийся в воздухе водяной пар достигнет насыщения.
f - Относительная влажность воздуха - влажноcть воздуха, измеренная на высоте 2 м над землей.
Te - Эффективная температура - температура, которую ощущает одетый по сезону человек в тени. Характеристика душности погоды. При расчете учитывается влияние влажности воздуха и скорости ветра на теплоощущения человека.
Tes - Эффективная температура на солнце - температура, которую ощущает человек, с поправкой на солнечный нагрев. Характеристика знойности погоды. Зависит от высоты солнца над горизонтом, облачности и скорости ветра. Ночью, в пасмурную погоду, а также при ветре 12 м/с и более поправка равна нулю.
P - Атмосферное давление - приведенное к уровню моря атмосферное давление.
Po - Атмосферное давление - измеренное на уровне метеостанции атмосферное давление.
Tmin - Минимальная температура - минимум температуры воздуха на высоте 2 м над землей.
Tmax - Максимальная температура - максимум температуры воздуха на высоте 2 м над землей.
R - Количество осадков - Количество выпавших осадков за период времени, мм. При наведении курсора мыши на число - период времени, за который выпало указанное количество осадков.
R24 - Количество осадков - Количество выпавших осадков за 24 часа, мм.
S - Снежный покров - Высота снежного покрова, см. При наведении курсора мыши на число - состояние снежного покрова и степень покрытия местности в баллах.